Time,TemperatureF,DewpointF,PressureIn,WindDirection,WindDirectionDegrees,WindSpeedMPH,WindSpeedGustMPH,Humidity,HourlyPrecipIn,Conditions,Clouds,dailyrainin,SolarRadiationWatts/m^2,SoftwareType,DateUTC
2013-08-20 00:02:00,81.0,60.0,-100.00,SW,231,3.0,8.0,49,0.00,,,0.00,171.000000,,2013-08-20 00:02:00,
2013-08-20 00:11:00,81.0,60.0,-100.00,SW,231,3.0,8.0,49,0.00,,,0.00,171.000000,,2013-08-20 00:11:00,
2013-08-20 00:42:00,79.0,60.0,-100.00,SW,218,2.0,9.0,53,0.00,,,0.00,124.000000,,2013-08-20 00:42:00,
2013-08-20 00:52:00,79.0,60.0,-100.00,SW,218,2.0,9.0,53,0.00,,,0.00,124.000000,,2013-08-20 00:52:00,
2013-08-20 01:03:00,79.0,60.0,-100.00,SW,218,2.0,9.0,53,0.00,,,0.00,124.000000,,2013-08-20 01:03:00,
2013-08-20 01:11:00,79.0,60.0,-100.00,SW,218,2.0,9.0,53,0.00,,,0.00,124.000000,,2013-08-20 01:11:00,
2013-08-20 01:42:00,73.0,63.0,-100.00,South,185,2.0,7.0,70,0.00,,,0.00,25.000000,,2013-08-20 01:42:00,
2013-08-20 01:52:00,73.0,63.0,-100.00,South,185,2.0,7.0,70,0.00,,,0.00,25.000000,,2013-08-20 01:52:00,
2013-08-20 02:02:00,73.0,63.0,-100.00,South,185,2.0,7.0,70,0.00,,,0.00,25.000000,,2013-08-20 02:02:00,
2013-08-20 02:11:00,73.0,63.0,-100.00,South,185,2.0,7.0,70,0.00,,,0.00,25.000000,,2013-08-20 02:11:00,
2013-08-20 02:42:00,69.0,62.0,-100.00,South,186,2.0,4.0,79,0.00,,,0.00,0.000000,,2013-08-20 02:42:00,
2013-08-20 02:52:00,69.0,62.0,-100.00,South,186,2.0,4.0,79,0.00,,,0.00,0.000000,,2013-08-20 02:52:00,
2013-08-20 03:02:00,69.0,62.0,-100.00,South,186,2.0,4.0,79,0.00,,,0.00,0.000000,,2013-08-20 03:02:00,
2013-08-20 03:11:00,69.0,62.0,-100.00,South,186,2.0,4.0,79,0.00,,,0.00,0.000000,,2013-08-20 03:11:00,
2013-08-20 03:12:00,65.0,62.0,-100.00,SSW,195,0.0,3.0,89,0.00,,,0.00,0.000000,,2013-08-20 03:12:00,
2013-08-20 03:43:00,65.0,62.0,-100.00,SSW,195,0.0,3.0,89,0.00,,,0.00,0.000000,,2013-08-20 03:43:00,
2013-08-20 03:54:00,65.0,62.0,-100.00,SSW,195,0.0,3.0,89,0.00,,,0.00,0.000000,,2013-08-20 03:54:00,
2013-08-20 04:03:00,65.0,62.0,-100.00,SSW,195,0.0,3.0,89,0.00,,,0.00,0.000000,,2013-08-20 04:03:00,
2013-08-20 04:12:00,63.0,61.0,-100.00,ESE,121,0.0,2.0,94,0.00,,,0.00,0.000000,,2013-08-20 04:12:00,
2013-08-20 04:43:00,63.0,61.0,-100.00,ESE,121,0.0,2.0,94,0.00,,,0.00,0.000000,,2013-08-20 04:43:00,
2013-08-20 04:53:00,63.0,61.0,-100.00,ESE,121,0.0,2.0,94,0.00,,,0.00,0.000000,,2013-08-20 04:53:00,
2013-08-20 05:02:00,63.0,61.0,-100.00,ESE,121,0.0,2.0,94,0.00,,,0.00,0.000000,,2013-08-20 05:02:00,
2013-08-20 05:43:00,61.0,60.0,-100.00,ESE,121,0.0,0.0,95,0.00,,,0.00,0.000000,,2013-08-20 05:43:00,
2013-08-20 05:52:00,61.0,60.0,-100.00,ESE,121,0.0,0.0,95,0.00,,,0.00,0.000000,,2013-08-20 05:52:00,
2013-08-20 06:02:00,61.0,60.0,-100.00,ESE,121,0.0,0.0,95,0.00,,,0.00,0.000000,,2013-08-20 06:02:00,
2013-08-20 06:11:00,61.0,60.0,-100.00,ESE,121,0.0,0.0,95,0.00,,,0.00,0.000000,,2013-08-20 06:11:00,
2013-08-20 06:42:00,60.0,59.0,-100.00,ESE,121,0.0,0.0,95,0.00,,,0.00,0.000000,,2013-08-20 06:42:00,
2013-08-20 06:52:00,60.0,59.0,-100.00,ESE,121,0.0,0.0,95,0.00,,,0.00,0.000000,,2013-08-20 06:52:00,
2013-08-20 07:01:00,60.0,59.0,-100.00,ESE,121,0.0,0.0,95,0.00,,,0.00,0.000000,,2013-08-20 07:01:00,
2013-08-20 07:11:00,60.0,59.0,-100.00,ESE,121,0.0,0.0,95,0.00,,,0.00,0.000000,,2013-08-20 07:11:00,
2013-08-20 07:42:00,59.0,58.0,-100.00,ESE,121,0.0,0.0,95,0.00,,,0.00,0.000000,,2013-08-20 07:42:00,
2013-08-20 07:52:00,59.0,58.0,-100.00,ESE,121,0.0,0.0,95,0.00,,,0.00,0.000000,,2013-08-20 07:52:00,
2013-08-20 08:02:00,59.0,58.0,-100.00,ESE,121,0.0,0.0,95,0.00,,,0.00,0.000000,,2013-08-20 08:02:00,
2013-08-20 08:11:00,59.0,58.0,-100.00,ESE,121,0.0,0.0,95,0.00,,,0.00,0.000000,,2013-08-20 08:11:00,
2013-08-20 08:42:00,57.0,56.0,-100.00,ESE,121,0.0,0.0,95,0.00,,,0.00,0.000000,,2013-08-20 08:42:00,
2013-08-20 08:52:00,57.0,56.0,-100.00,ESE,121,0.0,0.0,95,0.00,,,0.00,0.000000,,2013-08-20 08:52:00,
2013-08-20 09:01:00,57.0,56.0,-100.00,ESE,121,0.0,0.0,95,0.00,,,0.00,0.000000,,2013-08-20 09:01:00,
2013-08-20 09:11:00,57.0,56.0,-100.00,ESE,121,0.0,0.0,95,0.00,,,0.00,0.000000,,2013-08-20 09:11:00,
2013-08-20 09:12:00,57.0,56.0,-100.00,ESE,121,0.0,0.0,95,0.00,,,0.00,0.000000,,2013-08-20 09:12:00,
2013-08-20 09:42:00,57.0,56.0,-100.00,ESE,121,0.0,0.0,95,0.00,,,0.00,0.000000,,2013-08-20 09:42:00,
2013-08-20 09:53:00,57.0,56.0,-100.00,ESE,121,0.0,0.0,95,0.00,,,0.00,0.000000,,2013-08-20 09:53:00,
2013-08-20 10:04:00,57.0,56.0,-100.00,ESE,121,0.0,0.0,95,0.00,,,0.00,0.000000,,2013-08-20 10:04:00,
2013-08-20 10:43:00,57.0,56.0,-100.00,ESE,121,0.0,0.0,96,0.00,,,0.00,0.000000,,2013-08-20 10:43:00,
2013-08-20 10:52:00,57.0,56.0,-100.00,ESE,121,0.0,0.0,96,0.00,,,0.00,0.000000,,2013-08-20 10:52:00,
2013-08-20 11:02:00,57.0,56.0,-100.00,ESE,121,0.0,0.0,96,0.00,,,0.00,0.000000,,2013-08-20 11:02:00,
2013-08-20 11:11:00,57.0,56.0,-100.00,ESE,121,0.0,0.0,96,0.00,,,0.00,0.000000,,2013-08-20 11:11:00,
2013-08-20 11:12:00,57.0,56.0,-100.00,ESE,121,0.0,0.0,95,0.00,,,0.00,1.000000,,2013-08-20 11:12:00,
2013-08-20 11:42:00,57.0,56.0,-100.00,ESE,121,0.0,0.0,95,0.00,,,0.00,1.000000,,2013-08-20 11:42:00,
2013-08-20 11:52:00,57.0,56.0,-100.00,ESE,121,0.0,0.0,95,0.00,,,0.00,1.000000,,2013-08-20 11:52:00,
2013-08-20 12:01:00,57.0,56.0,-100.00,ESE,121,0.0,0.0,95,0.00,,,0.00,1.000000,,2013-08-20 12:01:00,
2013-08-20 12:42:00,59.0,58.0,-100.00,ESE,121,0.0,0.0,96,0.00,,,0.00,29.000000,,2013-08-20 12:42:00,
2013-08-20 12:52:00,59.0,58.0,-100.00,ESE,121,0.0,0.0,96,0.00,,,0.00,29.000000,,2013-08-20 12:52:00,
2013-08-20 13:01:00,59.0,58.0,-100.00,ESE,121,0.0,0.0,96,0.00,,,0.00,29.000000,,2013-08-20 13:01:00,
2013-08-20 13:11:00,59.0,58.0,-100.00,ESE,121,0.0,0.0,96,0.00,,,0.00,29.000000,,2013-08-20 13:11:00,
2013-08-20 13:42:00,65.0,62.0,-100.00,ESE,114,0.0,1.0,89,0.00,,,0.00,126.000000,,2013-08-20 13:42:00,
2013-08-20 13:52:00,65.0,62.0,-100.00,ESE,114,0.0,1.0,89,0.00,,,0.00,126.000000,,2013-08-20 13:52:00,
2013-08-20 14:02:00,65.0,62.0,-100.00,ESE,114,0.0,1.0,89,0.00,,,0.00,126.000000,,2013-08-20 14:02:00,
2013-08-20 14:11:00,65.0,62.0,-100.00,ESE,114,0.0,1.0,89,0.00,,,0.00,126.000000,,2013-08-20 14:11:00,
2013-08-20 14:42:00,72.0,63.0,-100.00,SSW,200,4.0,8.0,74,0.00,,,0.00,318.000000,,2013-08-20 14:42:00,
2013-08-20 14:52:00,72.0,63.0,-100.00,SSW,200,4.0,8.0,74,0.00,,,0.00,318.000000,,2013-08-20 14:52:00,
2013-08-20 15:02:00,72.0,63.0,-100.00,SSW,200,4.0,8.0,74,0.00,,,0.00,318.000000,,2013-08-20 15:02:00,
2013-08-20 15:11:00,72.0,63.0,-100.00,SSW,200,4.0,8.0,74,0.00,,,0.00,318.000000,,2013-08-20 15:11:00,
2013-08-20 15:12:00,78.0,64.0,-100.00,SSW,204,4.0,9.0,62,0.00,,,0.00,512.000000,,2013-08-20 15:12:00,
2013-08-20 15:43:00,78.0,64.0,-100.00,SSW,204,4.0,9.0,62,0.00,,,0.00,512.000000,,2013-08-20 15:43:00,
2013-08-20 15:53:00,78.0,64.0,-100.00,SSW,204,4.0,9.0,62,0.00,,,0.00,512.000000,,2013-08-20 15:53:00,
2013-08-20 16:04:00,78.0,64.0,-100.00,SSW,204,4.0,9.0,62,0.00,,,0.00,512.000000,,2013-08-20 16:04:00,
2013-08-20 16:12:00,83.0,65.0,-100.00,SSW,198,7.0,11.0,54,0.00,,,0.00,651.000000,,2013-08-20 16:12:00,
2013-08-20 16:42:00,83.0,65.0,-100.00,SSW,198,7.0,11.0,54,0.00,,,0.00,651.000000,,2013-08-20 16:42:00,
2013-08-20 16:53:00,83.0,65.0,-100.00,SSW,198,7.0,11.0,54,0.00,,,0.00,651.000000,,2013-08-20 16:53:00,
2013-08-20 17:03:00,83.0,65.0,-100.00,SSW,198,7.0,11.0,54,0.00,,,0.00,651.000000,,2013-08-20 17:03:00,
2013-08-20 17:12:00,85.0,64.0,-100.00,SSW,208,6.0,14.0,50,0.00,,,0.00,755.000000,,2013-08-20 17:12:00,
2013-08-20 17:43:00,85.0,64.0,-100.00,SSW,208,6.0,14.0,50,0.00,,,0.00,755.000000,,2013-08-20 17:43:00,
2013-08-20 17:52:00,85.0,64.0,-100.00,SSW,208,6.0,14.0,50,0.00,,,0.00,755.000000,,2013-08-20 17:52:00,
2013-08-20 18:02:00,85.0,64.0,-100.00,SSW,208,6.0,14.0,50,0.00,,,0.00,755.000000,,2013-08-20 18:02:00,
2013-08-20 18:43:00,86.0,62.0,-100.00,SSW,206,8.0,17.0,45,0.00,,,0.00,794.000000,,2013-08-20 18:43:00,
2013-08-20 18:52:00,86.0,62.0,-100.00,SSW,206,8.0,17.0,45,0.00,,,0.00,794.000000,,2013-08-20 18:52:00,
2013-08-20 19:01:00,86.0,62.0,-100.00,SSW,206,8.0,17.0,45,0.00,,,0.00,794.000000,,2013-08-20 19:01:00,
2013-08-20 19:11:00,86.0,62.0,-100.00,SSW,206,8.0,17.0,45,0.00,,,0.00,794.000000,,2013-08-20 19:11:00,
2013-08-20 19:12:00,87.0,62.0,-100.00,SSW,206,8.0,18.0,43,0.00,,,0.00,752.000000,,2013-08-20 19:12:00,
2013-08-20 19:42:00,87.0,62.0,-100.00,SSW,206,8.0,18.0,43,0.00,,,0.00,752.000000,,2013-08-20 19:42:00,
2013-08-20 19:53:00,87.0,62.0,-100.00,SSW,206,8.0,18.0,43,0.00,,,0.00,752.000000,,2013-08-20 19:53:00,
2013-08-20 20:03:00,87.0,62.0,-100.00,SSW,206,8.0,18.0,43,0.00,,,0.00,752.000000,,2013-08-20 20:03:00,
2013-08-20 20:42:00,87.0,62.0,-100.00,SSW,207,7.0,16.0,43,0.00,,,-99.99,614.000000,,2013-08-20 20:42:00,
2013-08-20 20:52:00,87.0,62.0,-100.00,SSW,207,7.0,16.0,43,0.00,,,-99.99,614.000000,,2013-08-20 20:52:00,
2013-08-20 21:02:00,87.0,62.0,-100.00,SSW,207,7.0,16.0,43,0.00,,,-99.99,614.000000,,2013-08-20 21:02:00,
2013-08-20 21:11:00,87.0,62.0,-100.00,SSW,207,7.0,16.0,43,0.00,,,-99.99,614.000000,,2013-08-20 21:11:00,
2013-08-20 21:12:00,85.0,62.0,-100.00,SSW,194,9.0,18.0,46,0.00,,,0.00,479.000000,,2013-08-20 21:12:00,
2013-08-20 22:12:00,86.0,62.0,-100.00,SSW,197,9.0,15.0,44,0.00,,,0.00,299.000000,,2013-08-20 22:12:00,
2013-08-20 22:42:00,86.0,62.0,-100.00,SSW,197,9.0,15.0,44,0.00,,,0.00,299.000000,,2013-08-20 22:42:00,
2013-08-20 22:54:00,86.0,62.0,-100.00,SSW,197,9.0,15.0,44,0.00,,,0.00,299.000000,,2013-08-20 22:54:00,
2013-08-20 23:03:00,86.0,62.0,-100.00,SSW,197,9.0,15.0,44,0.00,,,0.00,299.000000,,2013-08-20 23:03:00,
2013-08-20 23:12:00,85.0,62.0,-100.00,SSW,197,8.0,16.0,46,0.00,,,0.00,258.000000,,2013-08-20 23:12:00,
2013-08-20 23:43:00,85.0,62.0,-100.00,SSW,197,8.0,16.0,46,0.00,,,0.00,258.000000,,2013-08-20 23:43:00,
2013-08-20 23:53:00,85.0,62.0,-100.00,SSW,197,8.0,16.0,46,0.00,,,0.00,258.000000,,2013-08-20 23:53:00,